Weather History for KGEG - November, 2012

Change the Weather History Date:

Tuesday, November 13, 2012

  Actual Average Record
Temperature  
Mean Temperature 36 °F 37 °F  
Max Temperature 38 °F 43 °F 60 °F (1999)
Min Temperature 34 °F 31 °F -2 °F (1959)
Degree Days  
Heating Degree Days 29 28  
Month to date heating degree days 323 339  
Since 1 July heating degree days 929 1127  
Cooling Degree Days 0 0  
Month to date cooling degree days 0 0  
Year to date cooling degree days 535 450  
Moisture  
Dew Point 35 °F    
Average Humidity 93    
Maximum Humidity 100    
Minimum Humidity 85    
Precipitation  
Precipitation T in 0.08 in 0.73 in (1897)
Month to date precipitation 1.15 0.92  
Year to date precipitation 16.65 12.88  
Snow  
Snow 0.00 in 0.30 in 6.90 in (1911)
Month to date snowfall 5.9 1.7  
Since 1 July snowfall 5.9 1.8  
Since 1 September snowfall 5.9 1.8  
Snow Depth 1.00 in    
Sea Level Pressure  
Sea Level Pressure 30.24 in    
Wind  
Wind Speed 4 mph (SE)    
Max Wind Speed 10 mph    
Max Gust Speed 13 mph    
Visibility 7 miles    
Events Fog    
T = Trace of Precipitation, MM = Missing Value Source: NWS Daily Summary

Daily Weather History Graph

Daily Weather History Graph

Search for Another Location

Airport or City:

Trip Planner

Search our weather history database for the weather conditions in past years. The results will help you decide how hot, cold, wet, or windy it might be!

Date:

Astronomy

Nov. 13, 2012 Rise Set
Actual Time 6:53 AM PST 4:15 PM PST
Civil Twilight 6:19 AM PST 4:48 PM PST
Nautical Twilight 5:42 AM PST 5:25 PM PST
Astronomical Twilight 5:06 AM PST 6:02 PM PST
Moon 6:38 AM PST (11/13) 4:09 PM PST (11/13)
Length of Visible Light 10h 28m
Length of Day
9h 21m
Waning Crescent, 0% of the Moon is Illuminated
Nov 13
Waning Crescent
Nov 13
New
Nov 20
First Quarter
Nov 28
Full
Dec 6
Last Quarter

Hourly Weather History & Observations

Time (PST) Temp. Windchill Dew Point Humidity Pressure Visibility Wind Dir Wind Speed Gust Speed Precip Events Conditions
12:53 AM 34.0 °F - 34.0 °F 100% 30.29 in 0.8 mi Calm Calm - N/A   Overcast
1:53 AM 34.0 °F - 34.0 °F 100% 30.29 in 0.8 mi Calm Calm - N/A   Overcast
2:53 AM 34.0 °F - 34.0 °F 100% 30.29 in 0.8 mi Calm Calm - N/A   Overcast
3:53 AM 34.0 °F - 34.0 °F 100% 30.29 in 0.8 mi Calm Calm - N/A   Overcast
4:53 AM 34.0 °F 27.2 °F 34.0 °F 100% 30.28 in 1.5 mi SSE 8.1 mph - N/A   Overcast
5:37 AM 35.6 °F 29.9 °F 35.6 °F 100% 30.22 in 10.0 mi SSE 6.9 mph - N/A   Overcast
5:53 AM 35.1 °F 29.3 °F 35.1 °F 100% 30.28 in 10.0 mi SSE 6.9 mph - N/A   Overcast
6:53 AM 35.1 °F 28.6 °F 35.1 °F 100% 30.28 in 6.0 mi SSE 8.1 mph - N/A   Overcast
6:57 AM 35.6 °F 29.2 °F 35.6 °F 100% 30.22 in 2.0 mi SSE 8.1 mph - 0.00 in   Light Drizzle
7:53 AM 35.1 °F 29.3 °F 35.1 °F 100% 30.28 in 0.8 mi SE 6.9 mph - 0.00 in   Light Drizzle
8:09 AM 35.6 °F 29.2 °F 35.6 °F 100% 30.22 in 2.0 mi SSE 8.1 mph - 0.00 in   Overcast
8:42 AM 35.6 °F 29.9 °F 35.6 °F 100% 30.23 in 2.0 mi SSE 6.9 mph - 0.00 in   Overcast
8:53 AM 36.0 °F 31.1 °F 36.0 °F 100% 30.28 in 5.0 mi SE 5.8 mph - 0.00 in   Overcast
9:31 AM 35.6 °F 29.9 °F 35.6 °F 100% 30.22 in 6.0 mi SSE 6.9 mph - N/A   Overcast
9:53 AM 36.0 °F 30.3 °F 35.1 °F 97% 30.28 in 9.0 mi SSE 6.9 mph - N/A Fog Patches of Fog
10:53 AM 37.0 °F 32.4 °F 35.1 °F 93% 30.27 in 10.0 mi SE 5.8 mph - N/A   Overcast
11:53 AM 37.0 °F 34.5 °F 35.1 °F 93% 30.25 in 10.0 mi SSE 3.5 mph - N/A   Overcast
12:53 PM 37.9 °F 33.5 °F 35.1 °F 89% 30.24 in 10.0 mi SSE 5.8 mph - N/A   Overcast
1:53 PM 37.9 °F 32.7 °F 35.1 °F 89% 30.22 in 10.0 mi SSE 6.9 mph - N/A   Overcast
2:19 PM 37.4 °F 32.1 °F 35.6 °F 93% 30.17 in 10.0 mi SSE 6.9 mph - N/A   Overcast
2:53 PM 37.9 °F 33.5 °F 36.0 °F 93% 30.22 in 10.0 mi SSE 5.8 mph - N/A   Overcast
3:53 PM 37.9 °F 32.7 °F 36.0 °F 93% 30.22 in 10.0 mi SE 6.9 mph - N/A   Overcast
4:38 PM 37.4 °F 32.1 °F 35.6 °F 93% 30.16 in 10.0 mi SE 6.9 mph - N/A   Overcast
4:53 PM 37.0 °F 31.6 °F 35.1 °F 93% 30.21 in 10.0 mi SE 6.9 mph - N/A   Overcast
5:53 PM 37.0 °F 33.3 °F 35.1 °F 93% 30.21 in 10.0 mi SE 4.6 mph - N/A   Overcast
6:53 PM 36.0 °F 33.3 °F 35.1 °F 97% 30.20 in 10.0 mi SE 3.5 mph - N/A   Overcast
7:53 PM 37.0 °F - 35.1 °F 93% 30.20 in 10.0 mi Calm Calm - N/A   Overcast
8:53 PM 36.0 °F - 34.0 °F 93% 30.20 in 10.0 mi Calm Calm - N/A   Mostly Cloudy
9:53 PM 37.0 °F - 34.0 °F 89% 30.19 in 10.0 mi Calm Calm - N/A   Overcast
10:53 PM 37.0 °F - 34.0 °F 89% 30.19 in 10.0 mi Calm Calm - N/A   Overcast
11:53 PM 36.0 °F - 34.0 °F 93% 30.19 in 10.0 mi Calm Calm - 0.00 in   Overcast